Cedar Rapids, IA

10:26 PM CDT on July 24, 2017 (GMT -0500)
The Eastern Iowa Airport

Weather History for KCID - November, 2012

Change the Weather History Date:

Thursday, November 29, 2012

  Actual Average Record
Temperature  
Mean Temperature 38 °F 30 °F  
Max Temperature 50 °F 39 °F 69 °F (1998)
Min Temperature 26 °F 21 °F -12 °F (1891)
Degree Days  
Heating Degree Days 27 35  
Month to date heating degree days 800 800  
Since 1 July heating degree days 1568 1410  
Cooling Degree Days 0 0  
Month to date cooling degree days 0 0  
Year to date cooling degree days 1052 748  
Moisture  
Dew Point 29 °F    
Average Humidity 74    
Maximum Humidity 92    
Minimum Humidity 56    
Precipitation  
Precipitation 0.00 in 0.06 in 1.78 in (1975)
Month to date precipitation 1.92 2.04  
Year to date precipitation 23.02 33.12  
Sea Level Pressure  
Sea Level Pressure 30.09 in    
Wind  
Wind Speed 6 mph (SSE)    
Max Wind Speed 13 mph    
Max Gust Speed 16 mph    
Visibility 9 miles    
Events      
T = Trace of Precipitation, MM = Missing Value Source: NWS Daily Summary

Daily Weather History Graph

Daily Weather History Graph

Search for Another Location

Airport or City:

Trip Planner

Search our weather history database for the weather conditions in past years. The results will help you decide how hot, cold, wet, or windy it might be!

Date:

Astronomy

Nov. 29, 2012 Rise Set
Actual Time 7:13 AM CST 4:37 PM CST
Civil Twilight 6:42 AM CST 5:08 PM CST
Nautical Twilight 6:07 AM CST 5:42 PM CST
Astronomical Twilight 5:34 AM CST 6:16 PM CST
Moon 5:40 PM CST (11/29) 8:00 AM CST (11/29)
Length of Visible Light 10h 25m
Length of Day
9h 23m
Full, 99% of the Moon is Illuminated
Nov 29
Full
Dec 6
Last Quarter
Dec 13
New
Dec 19
First Quarter
Dec 28
Full

Hourly Weather History & Observations

Time (CST) Temp. Windchill Dew Point Humidity Pressure Visibility Wind Dir Wind Speed Gust Speed Precip Events Conditions
12:52 AM 30.0 °F 25.2 °F 25.0 °F 82% 30.20 in 8.0 mi South 4.6 mph - N/A   Clear
1:52 AM 28.9 °F 25.2 °F 24.1 °F 82% 30.20 in 8.0 mi SSE 3.5 mph - N/A   Clear
2:52 AM 28.0 °F 24.2 °F 24.1 °F 85% 30.19 in 8.0 mi SSE 3.5 mph - N/A   Clear
3:52 AM 27.0 °F 19.5 °F 24.1 °F 89% 30.17 in 8.0 mi SSE 6.9 mph - N/A   Clear
4:52 AM 28.9 °F 21.9 °F 25.0 °F 85% 30.15 in 8.0 mi South 6.9 mph - N/A   Clear
5:52 AM 28.9 °F 21.9 °F 25.0 °F 85% 30.14 in 8.0 mi SSE 6.9 mph - N/A   Clear
6:52 AM 28.9 °F 21.9 °F 25.0 °F 85% 30.14 in 8.0 mi SSE 6.9 mph - N/A   Clear
7:52 AM 30.0 °F 23.2 °F 26.1 °F 85% 30.14 in 7.0 mi SSE 6.9 mph - N/A   Clear
8:52 AM 34.0 °F 27.2 °F 28.0 °F 79% 30.13 in 7.0 mi South 8.1 mph - N/A   Clear
9:52 AM 39.0 °F 32.3 °F 30.0 °F 70% 30.12 in 9.0 mi South 10.4 mph - N/A   Clear
10:52 AM 45.0 °F 39.7 °F 32.0 °F 60% 30.10 in 10.0 mi South 10.4 mph - N/A   Clear
11:52 AM 46.9 °F - 33.1 °F 59% 30.07 in 10.0 mi South 8.1 mph - N/A   Clear
12:52 PM 48.0 °F - 33.1 °F 56% 30.04 in 10.0 mi SSE 6.9 mph - N/A   Clear
1:52 PM 48.0 °F - 33.1 °F 56% 30.02 in 10.0 mi SSE 8.1 mph - N/A   Clear
2:52 PM 46.9 °F - 33.1 °F 59% 30.01 in 10.0 mi SSE 5.8 mph - N/A   Clear
3:52 PM 45.0 °F 42.6 °F 34.0 °F 65% 30.02 in 10.0 mi East 4.6 mph - N/A   Clear
4:52 PM 41.0 °F 36.4 °F 32.0 °F 70% 30.03 in 9.0 mi ENE 6.9 mph - N/A   Clear
5:52 PM 37.9 °F 32.1 °F 30.9 °F 76% 30.04 in 10.0 mi East 8.1 mph - N/A   Clear
6:52 PM 37.9 °F 33.5 °F 32.0 °F 79% 30.04 in 9.0 mi ESE 5.8 mph - N/A   Clear
7:52 PM 39.0 °F - 32.0 °F 76% 30.04 in 9.0 mi Calm Calm - N/A   Clear
8:52 PM 35.1 °F 32.2 °F 30.9 °F 85% 30.03 in 10.0 mi ESE 3.5 mph - N/A   Clear
9:52 PM 35.1 °F 32.2 °F 30.9 °F 85% 30.03 in 10.0 mi SE 3.5 mph - N/A   Clear
10:52 PM 33.1 °F 30.0 °F 30.0 °F 89% 30.02 in 9.0 mi SE 3.5 mph - N/A   Clear
11:52 PM 34.0 °F 29.8 °F 30.9 °F 89% 30.01 in 8.0 mi SE 4.6 mph - N/A   Clear